Waarnemingen

Advertentie
Mijn weer
Kleine Brogel, België (6479): temperatuur & dauwpunt: 12.11.2019 16:00:00 - 18.11.2019 16:00:00 (CET)Kleine Brogel, België (6479): windsnelheid & windstoten: 12.11.2019 16:00:00 - 18.11.2019 16:00:00 (CET)Kleine Brogel, België (6479): windrichting: 12.11.2019 16:00:00 - 18.11.2019 16:00:00 (CET)Kleine Brogel, België (6479): luchtdruk: 12.11.2019 16:00:00 - 18.11.2019 16:00:00 (CET)Kleine Brogel, België (6479): zicht: 12.11.2019 16:00:00 - 18.11.2019 16:00:00 (CET)
Datum & Tijd tt [°C] td [°C] ff [km/u] ff [kn] fx [km/u] fx [kn] dd ppp [hPa] vv [km]
18.11.2019 16:00:00 5,8 5,4 11 6 - - W 1008,7 3,0
18.11.2019 15:00:00 5,6 5,2 11 6 18 10 W 1008,5 3,0
18.11.2019 14:00:00 5,6 5,3 7 4 18 10 W 1008,3 3,0
18.11.2019 13:00:00 5,5 4,9 7 4 - - WNW 1008,2 8
18.11.2019 12:00:00 5,3 4,8 7 4 18 10 WNW 1008,2 8
18.11.2019 11:00:00 5,0 4,4 7 4 22 12 NW 1008,5 6
18.11.2019 10:00:00 4,5 4,1 11 6 - - NW 1008,6 6
18.11.2019 09:00:00 4,4 4,0 7 4 18 10 NW 1008,6 4,0
18.11.2019 08:00:00 4,1 3,8 7 4 18 10 NW 1008,3 6
18.11.2019 07:00:00 4,0 3,6 9 5 - - NNW 1008,2 10
18.11.2019 06:00:00 3,7 3,2 11 6 29 16 NNW 1007,7 12
18.11.2019 05:00:00 3,7 3,2 14 8 32 18 N 1008,0 14
18.11.2019 04:00:00 4,0 3,5 11 6 - - NNW 1007,7 9
18.11.2019 03:00:00 3,9 3,5 14 8 22 12 NNW 1008,3 10
18.11.2019 02:00:00 3,7 3,4 11 6 18 10 NNW 1008,5 9
18.11.2019 01:00:00 3,7 3,3 7 4 - - N 1009,0 4,3
18.11.2019 00:00:00 3,7 3,3 7 4 14 8 NNW 1009,2 4,8
17.11.2019 23:00:00 3,8 3,2 7 4 14 8 NNW 1009,2 6
17.11.2019 22:00:00 4,5 2,5 7 4 - - NNO 1009,7 9
17.11.2019 21:00:00 4,5 2,5 11 6 18 10 N 1009,6 14
17.11.2019 20:00:00 4,5 2,6 7 4 14 8 NNW 1010,1 11
17.11.2019 19:00:00 4,3 2,7 7 4 - - N 1010,0 10
17.11.2019 18:00:00 - - - - - - - - -
17.11.2019 17:00:00 - - - - - - - - -
17.11.2019 16:00:00 5,4 2,8 4 2 - - N 1010,7 15
17.11.2019 15:00:00 6,1 2,8 11 6 14 8 NO 1011,2 16
17.11.2019 14:00:00 6,4 2,4 7 4 11 6 NO 1011,2 13
17.11.2019 13:00:00 6,2 2,2 7 4 - - NNO 1011,2 20
17.11.2019 12:00:00 4,2 1,7 4 2 18 10 N 1011,8 20
17.11.2019 11:00:00 3,9 1,6 7 4 14 8 ONO 1012,1 14
17.11.2019 10:00:00 1,4 0,5 4 2 - - N 1012,2 11
17.11.2019 09:00:00 -1,5 -1,6 2 1 4 2 - 1012,7 5
17.11.2019 08:00:00 -1,3 -1,5 2 1 4 2 - 1012,8 4,4
17.11.2019 07:00:00 -1,5 -1,7 4 2 - - N 1012,3 4,6
17.11.2019 06:00:00 -0,8 -0,9 4 2 4 2 N 1011,8 6
17.11.2019 05:00:00 -0,5 -0,7 4 2 4 2 N 1011,6 4,5
17.11.2019 04:00:00 1,3 0,5 4 2 - - N 1011,8 12
17.11.2019 03:00:00 2,4 1,0 4 2 7 4 N 1012,3 19
17.11.2019 02:00:00 3,0 1,4 4 2 7 4 N 1011,7 17
17.11.2019 01:00:00 4,4 1,8 4 2 - - N 1012,0 20
17.11.2019 00:00:00 4,3 1,8 4 2 7 4 N 1011,8 20
16.11.2019 23:00:00 4,5 1,9 4 2 7 4 N 1011,6 20
16.11.2019 22:00:00 4,5 2,0 4 2 - - N 1011,7 20
16.11.2019 21:00:00 4,0 1,9 4 2 4 2 N 1011,7 20
16.11.2019 20:00:00 4,1 1,7 4 2 7 4 N 1011,3 20
16.11.2019 19:00:00 4,9 1,9 4 2 - - N 1010,7 9
16.11.2019 18:00:00 2,7 1,3 4 2 4 2 N 1010,1 20
16.11.2019 17:00:00 5,5 1,7 4 2 14 8 N 1009,5 20
16.11.2019 16:00:00 6,7 2,2 7 4 - - Z 1008,8 14
16.11.2019 15:00:00 7,4 2,1 7 4 18 10 N 1008,5 20
16.11.2019 14:00:00 7,1 2,4 7 4 22 12 Z 1008,7 20
16.11.2019 13:00:00 7,4 2,4 11 6 - - ZZW 1008,8 20
16.11.2019 12:00:00 7,4 2,4 11 6 22 12 ZZW 1008,3 20
16.11.2019 11:00:00 5,2 2,0 7 4 11 6 Z 1008,7 20
16.11.2019 10:00:00 2,9 1,1 4 2 - - N 1008,6 19
16.11.2019 09:00:00 0,1 -0,2 4 2 4 2 N 1008,1 20
16.11.2019 08:00:00 0,0 -0,3 4 2 4 2 N 1007,6 17
16.11.2019 07:00:00 1,7 0,5 4 2 - - N 1006,5 20
16.11.2019 06:00:00 0,7 0,0 4 2 7 4 N 1005,7 20
16.11.2019 05:00:00 0,6 0,0 4 2 7 4 N 1006,0 20
16.11.2019 04:00:00 1,2 0,2 4 2 - - N 1006,0 20
16.11.2019 03:00:00 1,2 0,6 4 2 7 4 N 1006,0 20
16.11.2019 02:00:00 2,6 1,0 4 2 4 2 N 1005,8 20
16.11.2019 01:00:00 2,6 1,4 4 2 - - N 1005,7 20
16.11.2019 00:00:00 2,4 1,5 2 1 7 4 - 1005,6 10
15.11.2019 23:00:00 2,7 1,5 4 2 7 4 N 1005,0 20
15.11.2019 22:00:00 3,5 1,7 4 2 - - N 1004,6 20
15.11.2019 21:00:00 5,1 2,3 4 2 7 4 N 1004,2 20
15.11.2019 20:00:00 5,2 2,5 4 2 7 4 N 1003,7 19
15.11.2019 19:00:00 5,0 2,8 4 2 - - N 1002,7 16
15.11.2019 18:00:00 5,0 2,6 4 2 11 6 N 1002,0 15
15.11.2019 17:00:00 5,3 2,3 4 2 14 8 N 1001,5 16
15.11.2019 16:00:00 5,4 2,4 4 2 - - N 1000,8 14
15.11.2019 15:00:00 5,5 2,3 7 4 18 10 O 1000,2 14
15.11.2019 14:00:00 5,0 2,3 8 4 18 10 O 1000,2 10
15.11.2019 13:00:00 4,4 2,0 14 8 - - ONO 1000,0 13
15.11.2019 12:00:00 3,9 1,8 11 6 25 14 ONO 1000,0 12
15.11.2019 11:00:00 3,5 1,7 11 6 18 10 NO 1000,2 9
15.11.2019 10:00:00 2,5 1,2 11 6 - - NO 1000,3 8
15.11.2019 09:00:00 2,2 1,0 14 8 29 16 NNO 999,8 6
15.11.2019 08:00:00 2,0 0,9 18 10 29 16 NO 999,5 6
15.11.2019 07:00:00 1,7 0,9 18 10 - - NNO 998,9 7
15.11.2019 06:00:00 1,7 1,0 11 6 18 10 ONO 1000,1 8
15.11.2019 05:00:00 1,8 1,2 14 8 22 12 NNO 999,9 7
15.11.2019 04:00:00 2,0 1,4 2 1 - - - 1001,1 7
15.11.2019 03:00:00 2,2 1,4 7 4 18 10 ONO 1001,7 18
15.11.2019 02:00:00 1,9 1,3 7 4 11 6 ONO 1002,2 15
15.11.2019 01:00:00 2,2 1,9 2 1 - - - 1002,6 3,0
15.11.2019 00:00:00 2,7 2,2 2 1 7 4 - 1003,0 4,4
14.11.2019 23:00:00 3,7 2,9 7 4 7 4 NO 1002,8 16
14.11.2019 22:00:00 4,4 3,4 4 2 - - N 1003,2 15
14.11.2019 21:00:00 5,4 3,5 4 2 11 6 N 1003,6 20
14.11.2019 20:00:00 5,0 3,9 4 2 0 0 N 1003,5 19
14.11.2019 19:00:00 5,0 3,9 4 2 - - N 1003,7 20
14.11.2019 18:00:00 5,0 3,6 2 1 4 2 - 1003,0 10
14.11.2019 17:00:00 5,8 3,5 4 2 4 2 N 1002,6 10
14.11.2019 16:00:00 7,1 2,9 4 2 - - N 1002,2 10
14.11.2019 15:00:00 7,5 2,7 4 2 18 10 N 1001,5 10
14.11.2019 14:00:00 7,7 2,0 7 4 22 12 Z 1001,1 10
14.11.2019 13:00:00 7,7 2,5 11 6 - - Z 1001,6 10
14.11.2019 12:00:00 7,3 2,7 7 4 25 14 ZZO 1001,5 10
14.11.2019 11:00:00 6,6 3,4 11 6 25 14 OZO 1000,8 10
14.11.2019 10:00:00 5,9 2,9 11 6 - - O 1000,5 10
14.11.2019 09:00:00 5,4 2,7 11 6 22 12 O 1000,0 10
14.11.2019 08:00:00 4,6 2,5 7 4 22 12 O 999,8 10
14.11.2019 07:00:00 3,9 2,1 11 6 - - O 999,2 20
14.11.2019 06:00:00 3,4 2,1 7 4 18 10 O 999,2 20
14.11.2019 05:00:00 3,1 1,9 7 4 18 10 O 999,1 20
14.11.2019 04:00:00 2,6 1,9 4 2 - - N 999,3 17
14.11.2019 03:00:00 2,9 2,2 4 2 7 4 N 999,7 19
14.11.2019 02:00:00 3,9 2,8 4 2 11 6 N 999,7 20
14.11.2019 01:00:00 4,7 3,2 4 2 - - N 999,9 20
14.11.2019 00:00:00 5,2 3,4 4 2 14 8 N 1000,2 20
13.11.2019 23:00:00 4,9 3,1 4 2 14 8 N 1000,7 20
13.11.2019 22:00:00 5,6 3,6 7 4 - - Z 1001,2 20
13.11.2019 21:00:00 5,0 3,5 7 4 14 8 Z 1001,2 20
13.11.2019 20:00:00 5,4 3,8 7 4 18 10 Z 1001,5 20
13.11.2019 19:00:00 6,4 4,5 11 6 - - Z 1001,7 15
13.11.2019 18:00:00 6,0 5,1 4 2 11 6 N 1001,7 12
13.11.2019 17:00:00 5,7 5,2 4 2 18 10 N 1001,6 10
13.11.2019 16:00:00 7,0 6,1 11 6 - - ZZW 1001,5 8
13.11.2019 15:00:00 7,6 6,4 11 6 22 12 ZZW 1001,3 18
13.11.2019 14:00:00 7,9 6,6 18 10 22 12 ZW 1001,3 18
13.11.2019 13:00:00 7,5 6,6 11 6 - - ZW 1001,6 15
13.11.2019 12:00:00 6,9 6,1 13 7 29 16 ZW 1001,6 10
13.11.2019 11:00:00 6,9 5,9 18 10 29 16 ZW 1001,6 10
13.11.2019 10:00:00 6,0 5,1 18 10 - - ZW 1001,2 10
13.11.2019 09:00:00 5,6 4,9 18 10 29 16 ZW 1000,8 8
13.11.2019 08:00:00 5,3 4,7 18 10 29 16 ZW 1000,2 8
13.11.2019 07:00:00 5,0 4,4 14 8 - - ZZW 999,8 10
13.11.2019 06:00:00 4,4 3,8 18 10 29 16 ZW 999,5 10
13.11.2019 05:00:00 4,3 3,7 14 8 25 14 ZZW 999,5 10
13.11.2019 04:00:00 4,1 3,1 14 8 - - Z 999,9 20
13.11.2019 03:00:00 4,6 2,6 14 8 32 18 ZZW 999,7 20
13.11.2019 02:00:00 4,5 2,1 22 12 32 18 ZZW 999,4 20
13.11.2019 01:00:00 4,2 1,8 18 10 - - ZZW 999,5 20
13.11.2019 00:00:00 4,1 1,9 14 8 32 18 ZZW 999,4 20
12.11.2019 23:00:00 4,5 1,8 18 10 32 18 ZZW 999,8 20
12.11.2019 22:00:00 4,3 1,8 14 8 - - ZZW 1000,5 20
12.11.2019 21:00:00 3,8 1,6 11 6 25 14 Z 1000,6 20
12.11.2019 20:00:00 3,9 1,7 14 8 22 12 ZZW 1000,3 20
12.11.2019 19:00:00 4,4 1,9 11 6 - - ZZW 1000,5 20
12.11.2019 18:00:00 4,5 1,9 11 6 22 12 ZZW 1001,1 20
12.11.2019 17:00:00 5,4 2,4 11 6 25 14 ZZW 1001,1 20
12.11.2019 16:00:00 6,0 2,3 18 10 - - ZZW 1000,6 20

tt = temperatuur
td = dauwpunt
ff = windsnelheid
fx = windstoten
dd = windrichting
ppp = luchtdruk
vv = zicht

Weerstations in de omgeving